STARLINK-32710 (62604 NORAD) Tracking and Keplerian Element Data

This shows tracking and keplerian element data for the satellite.

Feedback or suggestion? Click here.




ElementValue
Catalog62604
NameSTARLINK-32710
Epoch Orbit455
Epoch Day35.16668981
Epoch Year2025
RAAN11.8897
Inclination43
Eccentricity0.0001549
Argument of Perigee265.35
Mean Anonmoly224.4604
Mean Motion15.50583241
Decay Rate-0.00032721
L11 62604U 25008T 25035.16668981 -.00032721 00000+0 -55417-3 0 9994
L22 62604 43.0000 11.8897 0001549 265.3500 224.4604 15.50583241 4551



Live tracking and technical data element details for STARLINK-32710 (NORAD 62604). STARLINK-32710 can be tracked NOW for your location showing map with azimuth and elevation plus other details from your city location.







IsCatalogInMostPopularTable: catalog: 62604, numindb: 3
Update: records affected: 1



GetName: 62604 STARLINK-32710

Hit Count: updated at: Sun, 09 Feb 2025 14:32:25 GMT